When you browse on this site, cookies collect data to enhance your experience and personalize the content and advertising you see.
Visit our Privacy Policy to learn more. By continuing to use the site, you agree to this use of cookies and data.
  • en Suisse
  • Liste des pays
  • À 7 jours
  • Température de l'eau
  • Carte météo
  • Widgets météo
  • user-avatar
    Se connecter

    Météo par heure à Berne

    Ce jour, 21 Août, Mercredi

    Heure Température Précipitation Vent Pression Humidité
    00:00 +12°C° 0 mm 1 m/s 721 mmHg 97%
    01:00 +12°C° 0 mm 1 m/s 721 mmHg 97%
    02:00 +11°C° 0 mm 1 m/s 721 mmHg 97%
    03:00 +11°C° 0 mm 1 m/s 721 mmHg 97%
    04:00 +10°C° 0 mm 2 m/s 721 mmHg 96%
    05:00 +12°C° 0 mm 2 m/s 721 mmHg 96%
    06:00 +12°C° 0 mm 2 m/s 721 mmHg 96%
    07:00 +13°C° 0 mm 3 m/s 721 mmHg 90%
    08:00 +14°C° 0 mm 3 m/s 721 mmHg 84%
    09:00 +15°C° 0 mm 4 m/s 721 mmHg 78%
    10:00 +18°C° 0 mm 4 m/s 721 mmHg 72%
    11:00 +20°C° 0 mm 4 m/s 720 mmHg 67%
    12:00 +21°C° 0 mm 4 m/s 720 mmHg 61%
    13:00 +21°C° 0 mm 4 m/s 720 mmHg 61%
    14:00 +22°C° 0 mm 4 m/s 720 mmHg 62%
    15:00 +22°C° 0 mm 4 m/s 720 mmHg 63%
    16:00 +21°C° 0 mm 4 m/s 720 mmHg 69%
    17:00 +19°C° 0 mm 3 m/s 720 mmHg 76%
    18:00 +18°C° 0 mm 3 m/s 720 mmHg 82%
    19:00 +17°C° 0 mm 2 m/s 720 mmHg 85%
    20:00 +16°C° 0 mm 2 m/s 720 mmHg 88%
    21:00 +15°C° 0 mm 2 m/s 719 mmHg 92%
    22:00 +14°C° 0 mm 2 m/s 719 mmHg 93%
    23:00 +14°C° 0 mm 1 m/s 719 mmHg 94%

    Demain, 22 Août, Jeudi

    Heure Température Précipitation Vent Pression Humidité
    00:00 +13°C° 0 mm 1 m/s 719 mmHg 95%
    01:00 +13°C° 0 mm 1 m/s 719 mmHg 95%
    02:00 +13°C° 0 mm 1 m/s 719 mmHg 94%
    03:00 +13°C° 0 mm 1 m/s 719 mmHg 94%
    04:00 +13°C° 0 mm 1 m/s 719 mmHg 93%
    05:00 +14°C° 0 mm 1 m/s 719 mmHg 92%
    06:00 +14°C° 0 mm 1 m/s 720 mmHg 92%
    07:00 +16°C° 0 mm 1 m/s 720 mmHg 85%
    08:00 +19°C° 0 mm 1 m/s 720 mmHg 79%
    09:00 +20°C° 0 mm 2 m/s 720 mmHg 73%
    10:00 +21°C° 0 mm 2 m/s 720 mmHg 70%
    11:00 +23°C° 0 mm 2 m/s 720 mmHg 67%
    12:00 +24°C° 0 mm 2 m/s 720 mmHg 64%
    13:00 +25°C° 0.1 mm 2 m/s 720 mmHg 65%
    14:00 +25°C° 0.1 mm 2 m/s 720 mmHg 65%
    15:00 +25°C° 0.1 mm 2 m/s 720 mmHg 66%
    16:00 +23°C° 0 mm 2 m/s 720 mmHg 73%
    17:00 +21°C° 0 mm 2 m/s 720 mmHg 81%
    18:00 +20°C° 0 mm 1 m/s 720 mmHg 88%
    19:00 +19°C° 0 mm 1 m/s 720 mmHg 91%
    20:00 +18°C° 0 mm 1 m/s 720 mmHg 93%
    21:00 +16°C° 0 mm 1 m/s 720 mmHg 95%
    22:00 +16°C° 0 mm 1 m/s 720 mmHg 95%
    23:00 +15°C° 0 mm 1 m/s 720 mmHg 95%

    Après-demain, 23 Août, Vendredi

    Heure Température Précipitation Vent Pression Humidité
    00:00 +15°C° 0 mm 1 m/s 719 mmHg 95%
    01:00 +15°C° 0 mm 1 m/s 719 mmHg 95%
    02:00 +15°C° 0 mm 1 m/s 719 mmHg 95%
    03:00 +14°C° 0 mm 1 m/s 719 mmHg 94%
    04:00 +15°C° 0 mm 1 m/s 719 mmHg 94%
    05:00 +16°C° 0 mm 1 m/s 719 mmHg 93%
    06:00 +16°C° 0 mm 1 m/s 719 mmHg 92%
    07:00 +19°C° 0 mm 1 m/s 720 mmHg 86%
    08:00 +21°C° 0 mm 1 m/s 720 mmHg 80%
    09:00 +23°C° 0 mm 1 m/s 720 mmHg 73%
    10:00 +24°C° 0 mm 2 m/s 720 mmHg 70%
    11:00 +25°C° 0 mm 2 m/s 720 mmHg 67%
    12:00 +26°C° 0 mm 2 m/s 719 mmHg 63%
    13:00 +26°C° 0.3 mm 2 m/s 719 mmHg 65%
    14:00 +26°C° 0.3 mm 2 m/s 719 mmHg 66%
    15:00 +26°C° 0.3 mm 2 m/s 719 mmHg 67%
    16:00 +24°C° 0.2 mm 2 m/s 719 mmHg 74%
    17:00 +23°C° 0.2 mm 1 m/s 719 mmHg 81%
    18:00 +21°C° 0.2 mm 1 m/s 718 mmHg 87%
    19:00 +20°C° 0 mm 1 m/s 718 mmHg 90%
    20:00 +19°C° 0 mm 1 m/s 719 mmHg 92%
    21:00 +18°C° 0 mm 1 m/s 719 mmHg 94%
    22:00 +18°C° 0 mm 1 m/s 718 mmHg 94%
    23:00 +18°C° 0 mm 1 m/s 718 mmHg 93%

    24 Août, Samedi

    Heure Température Précipitation Vent Pression Humidité
    00:00 +16°C° 0 mm 1 m/s 718 mmHg 93%
    01:00 +16°C° 0 mm 1 m/s 718 mmHg 93%
    02:00 +16°C° 0 mm 1 m/s 718 mmHg 93%
    03:00 +15°C° 0 mm 0 m/s 718 mmHg 93%
    04:00 +15°C° 0 mm 0 m/s 718 mmHg 92%
    05:00 +16°C° 0 mm 0 m/s 718 mmHg 91%
    06:00 +16°C° 0 mm 0 m/s 718 mmHg 90%
    07:00 +18°C° 0 mm 0 m/s 718 mmHg 83%
    08:00 +23°C° 0 mm 1 m/s 718 mmHg 76%
    09:00 +25°C° 0 mm 1 m/s 718 mmHg 69%
    10:00 +26°C° 0.1 mm 1 m/s 718 mmHg 65%
    11:00 +27°C° 0.1 mm 1 m/s 718 mmHg 61%
    12:00 +28°C° 0.1 mm 1 m/s 718 mmHg 57%
    13:00 +28°C° 0.2 mm 1 m/s 718 mmHg 56%
    14:00 +28°C° 0.2 mm 1 m/s 718 mmHg 55%
    15:00 +28°C° 0.2 mm 1 m/s 717 mmHg 54%
    16:00 +24°C° 0 mm 0 m/s 717 mmHg 62%
    17:00 +23°C° 0 mm 0 m/s 717 mmHg 71%
    18:00 +21°C° 0 mm 0 m/s 717 mmHg 80%
    19:00 +20°C° 0 mm 0 m/s 717 mmHg 82%
    20:00 +20°C° 0 mm 1 m/s 717 mmHg 85%
    21:00 +19°C° 0 mm 1 m/s 717 mmHg 87%
    22:00 +19°C° 0 mm 1 m/s 717 mmHg 87%
    23:00 +18°C° 0 mm 1 m/s 717 mmHg 87%

    25 Août, Dimanche

    Heure Température Précipitation Vent Pression Humidité
    00:00 +18°C° 0 mm 1 m/s 717 mmHg 87%
    01:00 +18°C° 0 mm 1 m/s 717 mmHg 86%
    02:00 +18°C° 0 mm 1 m/s 717 mmHg 86%
    03:00 +16°C° 0 mm 1 m/s 716 mmHg 85%
    04:00 +18°C° 0 mm 1 m/s 717 mmHg 84%
    05:00 +18°C° 0 mm 1 m/s 717 mmHg 83%
    06:00 +19°C° 0 mm 1 m/s 717 mmHg 83%
    07:00 +21°C° 0 mm 1 m/s 717 mmHg 74%
    08:00 +24°C° 0 mm 1 m/s 718 mmHg 65%
    09:00 +26°C° 0 mm 1 m/s 718 mmHg 55%
    10:00 +27°C° 0 mm 1 m/s 718 mmHg 51%
    11:00 +28°C° 0 mm 1 m/s 718 mmHg 46%
    12:00 +29°C° 0 mm 2 m/s 718 mmHg 41%
    13:00 +29°C° 0 mm 1 m/s 718 mmHg 42%
    14:00 +29°C° 0 mm 1 m/s 717 mmHg 42%
    15:00 +29°C° 0 mm 1 m/s 717 mmHg 43%
    16:00 +27°C° 0 mm 1 m/s 717 mmHg 52%
    17:00 +25°C° 0 mm 1 m/s 717 mmHg 61%
    18:00 +21°C° 0 mm 0 m/s 717 mmHg 70%
    19:00 +22°C° 0 mm 1 m/s 717 mmHg 69%
    20:00 +21°C° 0 mm 1 m/s 718 mmHg 69%
    21:00 +20°C° 0 mm 1 m/s 718 mmHg 68%
    22:00 +19°C° 0 mm 1 m/s 718 mmHg 69%
    23:00 +19°C° 0 mm 1 m/s 718 mmHg 69%

    26 Août, Lundi

    Heure Température Précipitation Vent Pression Humidité
    00:00 +18°C° 0 mm 1 m/s 718 mmHg 69%
    01:00 +18°C° 0 mm 1 m/s 718 mmHg 70%
    02:00 +18°C° 0 mm 1 m/s 718 mmHg 70%
    03:00 +16°C° 0 mm 1 m/s 718 mmHg 70%
    04:00 +18°C° 0 mm 1 m/s 718 mmHg 71%
    05:00 +18°C° 0 mm 1 m/s 718 mmHg 72%
    06:00 +17°C° 0 mm 0 m/s 718 mmHg 72%
    07:00 +19°C° 0 mm 0 m/s 719 mmHg 65%
    08:00 +22°C° 0 mm 0 m/s 719 mmHg 59%
    09:00 +25°C° 0 mm 0 m/s 720 mmHg 52%
    10:00 +28°C° 0 mm 1 m/s 720 mmHg 48%
    11:00 +29°C° 0 mm 1 m/s 720 mmHg 45%
    12:00 +30°C° 0 mm 1 m/s 720 mmHg 41%
    13:00 +30°C° 0 mm 1 m/s 719 mmHg 41%
    14:00 +30°C° 0 mm 1 m/s 719 mmHg 42%
    15:00 +30°C° 0 mm 1 m/s 719 mmHg 42%
    16:00 +27°C° 0 mm 1 m/s 719 mmHg 51%
    17:00 +25°C° 0 mm 1 m/s 719 mmHg 60%
    18:00 +23°C° 0 mm 1 m/s 718 mmHg 68%
    19:00 +22°C° 0 mm 1 m/s 719 mmHg 68%
    20:00 +21°C° 0 mm 1 m/s 719 mmHg 67%
    21:00 +21°C° 0 mm 1 m/s 719 mmHg 66%
    22:00 +20°C° 0 mm 1 m/s 719 mmHg 66%
    23:00 +20°C° 0 mm 1 m/s 719 mmHg 65%
    Voir plus